Weather History for Camden, AR

Change the Weather History Date:

Thursday, April 25, 2013

  Actual Average Record
Temperature  
Mean Temperature 53 °F -  
Max Temperature 71 °F 76 °F 92 °F (1949)
Min Temperature 35 °F 51 °F 35 °F (2013)
Degree Days  
Heating Degree Days 12    
Growing Degree Days 3 (Base 50)    
Moisture  
Dew Point 38 °F    
Average Humidity 63    
Maximum Humidity 100    
Minimum Humidity 23    
Precipitation  
Precipitation 0.00 in - - ()
Sea Level Pressure  
Sea Level Pressure 30.33 in    
Wind  
Wind Speed 2 mph (East)    
Max Wind Speed 13 mph    
Max Gust Speed 16 mph    
Visibility 8 miles    
Events Fog    
Averages and records for this station are not official NWS values.
T = Trace of Precipitation, MM = Missing Value Source: NWS Daily Summary

Daily Weather History Graph

Daily Weather History Graph

Search for Another Location

Airport:

Trip Planner

Search our weather history database for the weather conditions in past years. The results will help you decide how hot, cold, wet, or windy it might be!

Date:

Astronomy

Apr. 25, 2013 Rise Set
Actual Time 6:28 AM CDT 7:49 PM CDT
Civil Twilight 6:02 AM CDT 8:16 PM CDT
Nautical Twilight 5:31 AM CDT 8:47 PM CDT
Astronomical Twilight 4:58 AM CDT 9:20 PM CDT
Moon 8:02 PM CDT (4/25) 6:11 AM CDT (4/25)
Length of Visible Light 14h 13m
Length of Day
13h 21m
Full, 100% of the Moon is Illuminated
Apr 25
Full
Apr 25
Full
May 2
Last Quarter
May 9
New
May 17
First Quarter

Hourly Weather History & Observations

Time (CDT) Temp. Windchill Dew Point Humidity Pressure Visibility Wind Dir Wind Speed Gust Speed Precip Events Conditions
12:15 AM 41.0 °F - 39.2 °F 93% 30.30 in 7.0 mi Calm Calm - N/A   Clear
12:35 AM 41.0 °F - 39.2 °F 93% 30.31 in 5.0 mi Calm Calm - N/A   Clear
12:55 AM 41.0 °F - 39.2 °F 93% 30.30 in 5.0 mi Calm Calm - N/A   Clear
1:15 AM 41.0 °F - 39.2 °F 93% 30.30 in 7.0 mi Calm Calm - N/A   Clear
1:35 AM 39.2 °F - 37.4 °F 93% 30.30 in 6.0 mi Calm Calm - N/A   Clear
1:55 AM 39.2 °F - 37.4 °F 93% 30.30 in 8.0 mi Calm Calm - N/A   Clear
2:15 AM 39.2 °F - 37.4 °F 93% 30.30 in 5.0 mi Calm Calm - N/A   Clear
2:35 AM 39.2 °F - 37.4 °F 93% 30.30 in 5.0 mi Calm Calm - N/A   Clear
2:55 AM 39.2 °F - 37.4 °F 93% 30.30 in 5.0 mi Calm Calm - N/A   Clear
3:15 AM 37.4 °F - 35.6 °F 93% 30.31 in 5.0 mi Calm Calm - N/A   Clear
3:35 AM 39.2 °F - 37.4 °F 93% 30.31 in 9.0 mi Calm Calm - N/A   Clear
3:55 AM 37.4 °F - 35.6 °F 93% 30.32 in 0.5 mi Calm Calm - N/A Fog Fog
4:15 AM 37.4 °F - 37.4 °F 100% 30.32 in 3.0 mi Calm Calm - N/A   Clear
4:35 AM 37.4 °F - 35.6 °F 93% 30.33 in 0.2 mi Calm Calm - N/A Fog Fog
4:55 AM 37.4 °F - 35.6 °F 93% 30.34 in 1.5 mi Calm Calm - N/A   Clear
5:15 AM 37.4 °F - 35.6 °F 93% 30.34 in 5.0 mi Calm Calm - N/A   Clear
5:35 AM 37.4 °F - 35.6 °F 93% 30.34 in 9.0 mi Calm Calm - N/A   Clear
5:55 AM 35.6 °F - 35.6 °F 100% 30.34 in 5.0 mi Calm Calm - N/A   Clear
6:15 AM 35.6 °F - 33.8 °F 93% 30.35 in 9.0 mi Calm Calm - N/A   Clear
6:35 AM 35.6 °F - 33.8 °F 93% 30.36 in 5.0 mi Calm Calm - N/A   Clear
6:55 AM 35.6 °F - 35.6 °F 100% 30.37 in 4.0 mi Calm Calm - N/A   Clear
7:15 AM 37.4 °F - 35.6 °F 93% 30.38 in 5.0 mi Calm Calm - N/A   Clear
7:35 AM 39.2 °F - 37.4 °F 93% 30.38 in 5.0 mi Calm Calm - N/A   Clear
7:55 AM 41.0 °F 38.0 °F 39.2 °F 93% 30.38 in 7.0 mi North 4.6 mph - N/A   Clear
8:15 AM 44.6 °F - 41.0 °F 87% 30.38 in 8.0 mi Calm Calm - N/A   Clear
8:35 AM 46.4 °F - 42.8 °F 87% 30.38 in 8.0 mi Calm Calm - N/A   Clear
8:55 AM 48.2 °F - 44.6 °F 87% 30.38 in 10.0 mi NE 3.5 mph - N/A   Clear
9:15 AM 50.0 °F - 44.6 °F 82% 30.38 in 10.0 mi East 3.5 mph - N/A   Clear
9:35 AM 53.6 °F - 44.6 °F 72% 30.39 in 10.0 mi Calm Calm - N/A   Clear
9:55 AM 55.4 °F - 44.6 °F 67% 30.39 in 10.0 mi ESE 3.5 mph - N/A   Clear
10:15 AM 57.2 °F - 42.8 °F 59% 30.40 in 10.0 mi Calm Calm - N/A   Clear
10:35 AM 59.0 °F - 42.8 °F 55% 30.40 in 10.0 mi East 4.6 mph - N/A   Clear
10:55 AM 60.8 °F - 39.2 °F 45% 30.39 in 10.0 mi NE 5.8 mph - N/A   Clear
11:15 AM 62.6 °F - 39.2 °F 42% 30.39 in 10.0 mi East 8.1 mph - N/A   Clear
11:35 AM 64.4 °F - 39.2 °F 40% 30.39 in 10.0 mi NNE 8.1 mph - N/A   Clear
11:55 AM 64.4 °F - 37.4 °F 37% 30.39 in 10.0 mi East 4.6 mph - N/A   Clear
12:15 PM 64.4 °F - 37.4 °F 37% 30.38 in 10.0 mi ENE 3.5 mph - N/A   Clear
12:35 PM 66.2 °F - 37.4 °F 35% 30.37 in 10.0 mi ESE 4.6 mph - N/A   Clear
12:55 PM 66.2 °F - 37.4 °F 35% 30.36 in 10.0 mi ENE 6.9 mph - N/A   Clear
1:15 PM 68.0 °F - 37.4 °F 33% 30.36 in 10.0 mi NE 4.6 mph - N/A   Clear
1:35 PM 68.0 °F - 35.6 °F 30% 30.35 in 10.0 mi ESE 5.8 mph - N/A   Clear
1:55 PM 69.8 °F - 35.6 °F 28% 30.34 in 10.0 mi ENE 12.7 mph - N/A   Clear
2:15 PM 71.6 °F - 37.4 °F 29% 30.33 in 10.0 mi ESE 9.2 mph - N/A   Clear
2:35 PM 71.6 °F - 37.4 °F 29% 30.33 in 10.0 mi NE 10.4 mph 16.1 mph N/A   Clear
2:55 PM 71.6 °F - 37.4 °F 29% 30.32 in 10.0 mi NE 8.1 mph - N/A   Clear
3:15 PM 71.6 °F - 37.4 °F 29% 30.31 in 10.0 mi East 3.5 mph - N/A   Clear
3:35 PM 71.6 °F - 33.8 °F 25% 30.30 in 10.0 mi East 6.9 mph - N/A   Clear
3:55 PM 71.6 °F - 33.8 °F 25% 30.29 in 10.0 mi East 10.4 mph - N/A   Clear
4:15 PM 71.6 °F - 35.6 °F 27% 30.28 in 10.0 mi East 5.8 mph - N/A   Clear
4:35 PM 71.6 °F - 32.0 °F 23% 30.28 in 10.0 mi East 6.9 mph 16.1 mph N/A   Clear
4:55 PM 71.6 °F - 35.6 °F 27% 30.28 in 10.0 mi East 6.9 mph - N/A   Clear
5:15 PM 71.6 °F - 33.8 °F 25% 30.29 in 10.0 mi East 6.9 mph - N/A   Clear
5:35 PM 71.6 °F - 33.8 °F 25% 30.28 in 10.0 mi East 4.6 mph - N/A   Clear
5:55 PM 71.6 °F - 35.6 °F 27% 30.28 in 10.0 mi East 5.8 mph - N/A   Clear
6:15 PM 69.8 °F - 33.8 °F 27% 30.28 in 10.0 mi ESE 8.1 mph - N/A   Clear
6:35 PM 68.0 °F - 35.6 °F 30% 30.28 in 10.0 mi ESE 5.8 mph - N/A   Clear
6:55 PM 68.0 °F - 35.6 °F 30% 30.27 in 10.0 mi East 5.8 mph - N/A   Clear
7:15 PM 66.2 °F - 35.6 °F 32% 30.27 in 10.0 mi East 3.5 mph - N/A   Clear
7:35 PM 64.4 °F - 37.4 °F 37% 30.27 in 10.0 mi East 3.5 mph - N/A   Clear
7:55 PM 60.8 °F - 37.4 °F 42% 30.27 in 10.0 mi Calm Calm - N/A   Clear
8:15 PM 59.0 °F - 39.2 °F 48% 30.27 in 10.0 mi East 3.5 mph - N/A   Clear
8:35 PM 57.2 °F - 39.2 °F 51% 30.28 in 10.0 mi Calm Calm - N/A   Clear
8:55 PM 55.4 °F - 41.0 °F 58% 30.28 in 10.0 mi East 3.5 mph - N/A   Clear
9:15 PM 53.6 °F - 41.0 °F 62% 30.28 in 10.0 mi Calm Calm - N/A   Clear
9:35 PM 53.6 °F - 41.0 °F 62% 30.30 in 10.0 mi Calm Calm - N/A   Clear
9:55 PM 51.8 °F - 41.0 °F 67% 30.30 in 10.0 mi Calm Calm - N/A   Clear
10:15 PM 50.0 °F - 41.0 °F 71% 30.31 in 10.0 mi Calm Calm - N/A   Clear
10:35 PM 48.2 °F - 42.8 °F 82% 30.31 in 10.0 mi Calm Calm - N/A   Clear
10:55 PM 48.2 °F - 42.8 °F 82% 30.31 in 10.0 mi Calm Calm - N/A   Clear
11:15 PM 48.2 °F - 42.8 °F 82% 30.30 in 10.0 mi Calm Calm - N/A   Clear
11:35 PM 48.2 °F - 41.0 °F 76% 30.30 in 10.0 mi Calm Calm - N/A   Clear
11:55 PM 46.4 °F - 41.0 °F 81% 30.29 in 10.0 mi Calm Calm - N/A   Clear